| time (UTC) | temp C | wind direction | speed KPH | gust KPH | rain 1hr cm | rain 24hr cm | rain mn cm | humidity % | barometer mb |
| 20260906183628 | 18 | 181 | 3.2 | 11.3 | 0.13 | 0.53 | 0.53 | 94 | 1019.0 |
| 20260906182556 | 18 | 202 | 3.2 | 11.3 | 0.13 | 0.53 | 0.53 | 94 | 1019.3 |
| 20260906181619 | 18 | 170 | 3.2 | 16.1 | 0.38 | 0.53 | 0.53 | 94 | 1019.4 |
| 20260906180630 | 18 | 211 | 3.2 | 16.1 | 0.00 | 0.48 | 0.48 | 94 | 1019.4 |
| 20260906175614 | 18 | 169 | 0.0 | 6.4 | 0.00 | 0.46 | 0.46 | 94 | 1019.6 |
| 20260906174620 | 18 | 210 | 0.0 | 9.7 | 0.00 | 0.46 | 0.46 | 93 | 1019.9 |
| 20260906173613 | 18 | 185 | 0.0 | 9.7 | 0.00 | 0.46 | 0.46 | 93 | 1019.4 |
| 20260906172613 | 18 | 193 | 1.6 | 25.7 | 0.00 | 0.46 | 0.46 | 93 | 1019.6 |
| 20260906171632 | 18 | 193 | 4.8 | 25.7 | 0.10 | 0.46 | 0.46 | 92 | 1018.7 |
| 20260906170608 | 18 | 152 | 1.6 | 17.7 | 0.10 | 0.41 | 0.43 | 92 | 1018.8 |
| 20260906165633 | 18 | 154 | 0.0 | 14.5 | 0.23 | 0.41 | 0.43 | 92 | 1018.4 |
| 20260906164625 | 18 | 164 | 3.2 | 14.5 | 0.33 | 0.36 | 0.41 | 91 | 1018.4 |
| 20260906163643 | 18 | 220 | 0.0 | 12.9 | 0.97 | 0.33 | 0.33 | 91 | 1018.4 |
| 20260906161609 | 19 | 92 | 3.2 | 20.9 | 0.00 | 0.00 | 0.00 | 88 | 1018.4 |
| 20260906160535 | 20 | 144 | 4.8 | 22.5 | 0.00 | 0.00 | 0.00 | 85 | 1018.1 |
| 20260906155550 | 22 | 116 | 3.2 | 22.5 | 0.00 | 0.00 | 0.00 | 90 | 1017.7 |
| 20260906154539 | 22 | 204 | 3.2 | 20.9 | 0.00 | 0.00 | 0.00 | 92 | 1017.9 |
| 20260906153517 | 22 | 145 | 4.8 | 20.9 | 0.00 | 0.00 | 0.00 | 93 | 1018.0 |
| 20260906152448 | 22 | 161 | 3.2 | 12.9 | 0.00 | 0.00 | 0.00 | 94 | 1018.1 |
| 20260906151450 | 22 | 80 | 3.2 | 17.7 | 0.00 | 0.00 | 0.00 | 93 | 1018.1 |
| 20260906150505 | 22 | 103 | 1.6 | 17.7 | 0.00 | 0.00 | 0.00 | 93 | 1018.0 |
| 20260906145510 | 22 | 103 | 1.6 | 11.3 | 0.00 | 0.03 | 0.00 | 93 | 1017.7 |
| 20260906143515 | 22 | 102 | 1.6 | 9.7 | 0.00 | 0.05 | 0.00 | 93 | 1017.7 |
| 20260906142510 | 22 | 134 | 1.6 | 12.9 | 0.00 | 0.05 | 0.00 | 93 | 1017.9 |
| 20260906141452 | 22 | 135 | 1.6 | 12.9 | 0.00 | 0.05 | 0.00 | 93 | 1017.9 |
| 20260906140454 | 22 | 96 | 1.6 | 12.9 | 0.00 | 0.05 | 0.00 | 93 | 1017.8 |
| 20260906135450 | 22 | 166 | 1.6 | 8.0 | 0.00 | 0.05 | 0.00 | 93 | 1017.7 |
| 20260906134424 | 22 | 102 | 1.6 | 11.3 | 0.00 | 0.05 | 0.00 | 93 | 1017.8 |
| 20260906133442 | 22 | 100 | 1.6 | 16.1 | 0.00 | 0.05 | 0.00 | 93 | 1017.7 |
| 20260906132419 | 22 | 127 | 1.6 | 16.1 | 0.00 | 0.08 | 0.00 | 93 | 1017.3 |
| 20260906131347 | 22 | 120 | 1.6 | 8.0 | 0.00 | 0.08 | 0.00 | 93 | 1017.4 |
| 20260906130328 | 22 | 97 | 0.0 | 11.3 | 0.00 | 0.08 | 0.00 | 93 | 1017.3 |
| 20260906125317 | 22 | 115 | 1.6 | 11.3 | 0.00 | 0.08 | 0.00 | 93 | 1017.4 |
| 20260906124324 | 22 | 133 | 1.6 | 11.3 | 0.00 | 0.08 | 0.00 | 93 | 1017.4 |
| 20260906122334 | 22 | 99 | 1.6 | 12.9 | 0.00 | 0.08 | 0.00 | 93 | 1017.3 |
| 20260906121305 | 22 | 105 | 1.6 | 8.0 | 0.00 | 0.08 | 0.00 | 93 | 1017.2 |
| 20260906120315 | 22 | 152 | 1.6 | 8.0 | 0.00 | 0.08 | 0.00 | 93 | 1017.1 |
| 20260906114252 | 22 | 137 | 1.6 | 12.9 | 0.00 | 0.08 | 0.00 | 93 | 1016.7 |
| 20260906113239 | 22 | 148 | 0.0 | 11.3 | 0.00 | 0.08 | 0.00 | 93 | 1016.6 |
| 20260906112247 | 22 | 62 | 1.6 | 11.3 | 0.00 | 0.08 | 0.00 | 94 | 1016.6 |
| 20260906111219 | 22 | 73 | 1.6 | 11.3 | 0.00 | 0.08 | 0.00 | 94 | 1016.6 |
| 20260906110236 | 22 | 102 | 1.6 | 11.3 | 0.00 | 0.08 | 0.00 | 94 | 1016.6 |
| 20260906105256 | 22 | 118 | 1.6 | 11.3 | 0.00 | 0.08 | 0.00 | 94 | 1016.6 |
| 20260906104236 | 22 | 86 | 1.6 | 12.9 | 0.00 | 0.08 | 0.00 | 94 | 1016.7 |
| 20260906103210 | 22 | 153 | 1.6 | 12.9 | 0.00 | 0.08 | 0.00 | 94 | 1016.7 |
| 20260906102234 | 22 | 139 | 1.6 | 12.9 | 0.00 | 0.08 | 0.00 | 94 | 1016.7 |
| 20260906094208 | 22 | 193 | 0.0 | 8.0 | 0.00 | 0.08 | 0.00 | 94 | 1016.7 |
| 20260906093230 | 22 | 98 | 0.0 | 9.7 | 0.00 | 0.08 | 0.00 | 94 | 1016.9 |
| 20260906092219 | 22 | 96 | 1.6 | 9.7 | 0.00 | 0.08 | 0.00 | 94 | 1016.8 |
| 20260906091213 | 22 | 137 | 1.6 | 9.7 | 0.00 | 0.08 | 0.00 | 93 | 1016.8 |
| 20260906090215 | 22 | 108 | 1.6 | 12.9 | 0.00 | 0.08 | 0.00 | 93 | 1016.5 |
| 20260906085225 | 22 | 62 | 1.6 | 12.9 | 0.00 | 0.08 | 0.00 | 93 | 1016.2 |
| 20260906083216 | 22 | 104 | 1.6 | 12.9 | 0.00 | 0.08 | 0.00 | 93 | 1016.2 |
| 20260906082146 | 22 | 106 | 1.6 | 14.5 | 0.00 | 0.08 | 0.00 | 93 | 1016.1 |
| 20260906081117 | 22 | 110 | 1.6 | 14.5 | 0.00 | 0.08 | 0.00 | 93 | 1016.2 |
| 20260906080055 | 22 | 95 | 1.6 | 12.9 | 0.00 | 0.08 | 0.00 | 93 | 1016.2 |
| 20260906075031 | 22 | 92 | 3.2 | 12.9 | 0.00 | 0.08 | 0.00 | 93 | 1016.3 |
| 20260906072940 | 22 | 149 | 3.2 | 14.5 | 0.00 | 0.08 | 0.00 | 93 | 1016.1 |
| 20260906071915 | 22 | 115 | 1.6 | 12.9 | 0.00 | 0.08 | 0.00 | 93 | 1016.0 |
| 20260906070843 | 22 | 125 | 1.6 | 16.1 | 0.00 | 0.08 | 0.00 | 93 | 1016.3 |
| 20260906064840 | 22 | 130 | 1.6 | 16.1 | 0.00 | 0.08 | 0.00 | 93 | 1016.5 |
| 20260906062830 | 22 | 92 | 1.6 | 14.5 | 0.00 | 0.08 | 0.00 | 92 | 1016.6 |
| 20260906061844 | 22 | 83 | 3.2 | 14.5 | 0.00 | 0.08 | 0.00 | 92 | 1016.5 |
| 20260906055900 | 23 | 97 | 3.2 | 14.5 | 0.00 | 0.08 | 0.00 | 92 | 1016.3 |
| 20260906054835 | 23 | 89 | 3.2 | 14.5 | 0.00 | 0.08 | 0.00 | 92 | 1016.3 |
| 20260906053852 | 23 | 145 | 1.6 | 12.9 | 0.00 | 0.08 | 0.00 | 92 | 1016.2 |
| 20260906051758 | 23 | 115 | 3.2 | 12.9 | 0.00 | 0.08 | 0.00 | 92 | 1016.2 |
| 20260906050728 | 23 | 116 | 3.2 | 12.9 | 0.00 | 0.08 | 0.00 | 92 | 1016.2 |
| 20260906045723 | 23 | 85 | 3.2 | 11.3 | 0.00 | 0.08 | 0.08 | 92 | 1016.1 |
| 20260906044729 | 24 | 105 | 1.6 | 11.3 | 0.00 | 0.08 | 0.08 | 91 | 1016.1 |
| 20260906043748 | 24 | 99 | 1.6 | 9.7 | 0.00 | 0.08 | 0.08 | 91 | 1016.0 |
| 20260906041726 | 24 | 113 | 1.6 | 8.0 | 0.00 | 0.08 | 0.08 | 91 | 1016.0 |
| 20260906040656 | 24 | 107 | 1.6 | 12.9 | 0.00 | 0.08 | 0.08 | 91 | 1016.0 |
| 20260906035642 | 24 | 109 | 1.6 | 12.9 | 0.00 | 0.08 | 0.08 | 90 | 1016.0 |
| 20260906033642 | 24 | 110 | 1.6 | 11.3 | 0.00 | 0.08 | 0.08 | 90 | 1015.7 |
| 20260906032633 | 25 | 113 | 1.6 | 9.7 | 0.00 | 0.08 | 0.08 | 90 | 1015.8 |
| 20260906031648 | 25 | 114 | 1.6 | 9.7 | 0.00 | 0.08 | 0.08 | 90 | 1015.9 |
| 20260906030711 | 25 | 93 | 1.6 | 9.7 | 0.00 | 0.08 | 0.08 | 90 | 1015.8 |
| 20260906025732 | 25 | 117 | 1.6 | 9.7 | 0.00 | 0.08 | 0.08 | 90 | 1015.9 |
| 20260906024734 | 25 | 101 | 1.6 | 9.7 | 0.00 | 0.08 | 0.08 | 90 | 1016.0 |
| 20260906023719 | 24 | 88 | 1.6 | 9.7 | 0.00 | 0.08 | 0.08 | 89 | 1016.1 |
| 20260906022722 | 24 | 91 | 0.0 | 4.8 | 0.00 | 0.08 | 0.08 | 89 | 1016.3 |
| 20260906021700 | 24 | 111 | 0.0 | 4.8 | 0.00 | 0.08 | 0.08 | 89 | 1016.2 |
| 20260906020649 | 24 | 116 | 0.0 | 4.8 | 0.00 | 0.08 | 0.08 | 88 | 1016.3 |
| 20260906015650 | 24 | 94 | 0.0 | 3.2 | 0.00 | 0.08 | 0.08 | 88 | 1016.0 |
| 20260906014619 | 24 | 81 | 0.0 | 1.6 | 0.00 | 0.08 | 0.08 | 88 | 1016.2 |
| 20260906013612 | 24 | 81 | 0.0 | 3.2 | 0.00 | 0.08 | 0.08 | 87 | 1016.0 |
| 20260906012638 | 25 | 82 | 0.0 | 3.2 | 0.00 | 0.08 | 0.08 | 87 | 1015.9 |
| 20260906011606 | 25 | 84 | 0.0 | 3.2 | 0.00 | 0.08 | 0.08 | 86 | 1015.9 |
| 20260906010607 | 25 | 115 | 0.0 | 3.2 | 0.00 | 0.08 | 0.08 | 85 | 1015.8 |
| 20260906005616 | 25 | 93 | 0.0 | 3.2 | 0.00 | 0.08 | 0.08 | 84 | 1015.5 |
| 20260906004548 | 25 | 108 | 0.0 | 0.0 | 0.00 | 0.08 | 0.08 | 83 | 1015.3 |
| 20260906003543 | 26 | 108 | 0.0 | 0.0 | 0.00 | 0.08 | 0.08 | 82 | 1015.5 |
| 20260906002559 | 26 | 108 | 0.0 | 0.0 | 0.00 | 0.08 | 0.08 | 81 | 1015.4 |
| 20260906001547 | 26 | 108 | 0.0 | 4.8 | 0.00 | 0.08 | 0.08 | 81 | 1015.5 |
| 20260906000518 | 26 | 66 | 0.0 | 0.0 | 0.00 | 0.08 | 0.08 | 80 | 1015.4 |
| 20260905235519 | 26 | 93 | 1.6 | 14.5 | 0.00 | 0.08 | 0.08 | 80 | 1015.2 |
| 20260905234457 | 26 | 106 | 1.6 | 14.5 | 0.00 | 0.08 | 0.08 | 79 | 1015.4 |
| 20260905233428 | 27 | 110 | 1.6 | 14.5 | 0.00 | 0.08 | 0.08 | 78 | 1015.5 |
| 20260905231402 | 27 | 116 | 1.6 | 11.3 | 0.00 | 0.08 | 0.08 | 77 | 1015.5 |
| 20260905230352 | 27 | 93 | 1.6 | 8.0 | 0.00 | 0.08 | 0.08 | 77 | 1015.5 |
| 20260905225329 | 27 | 87 | 0.0 | 9.7 | 0.00 | 0.08 | 0.08 | 78 | 1015.3 |
| 20260905224302 | 27 | 88 | 0.0 | 16.1 | 0.00 | 0.08 | 0.08 | 78 | 1015.2 |
| 20260905223326 | 27 | 101 | 1.6 | 16.1 | 0.00 | 0.08 | 0.08 | 78 | 1015.2 |
| 20260905222257 | 27 | 101 | 3.2 | 14.5 | 0.00 | 0.08 | 0.08 | 77 | 1014.9 |
| 20260905221243 | 27 | 137 | 1.6 | 9.7 | 0.00 | 0.08 | 0.08 | 77 | 1014.8 |
| 20260905220221 | 27 | 175 | 1.6 | 11.3 | 0.00 | 0.08 | 0.08 | 75 | 1014.8 |
| 20260905215153 | 27 | 91 | 1.6 | 12.9 | 0.00 | 0.08 | 0.08 | 75 | 1014.7 |
| 20260905214134 | 27 | 23 | 4.8 | 14.5 | 0.00 | 0.08 | 0.08 | 74 | 1014.6 |
| 20260905213129 | 27 | 104 | 3.2 | 19.3 | 0.00 | 0.08 | 0.08 | 74 | 1014.5 |
| 20260905212124 | 27 | 69 | 3.2 | 20.9 | 0.00 | 0.08 | 0.08 | 75 | 1014.4 |
| 20260905211126 | 27 | 109 | 3.2 | 20.9 | 0.00 | 0.08 | 0.08 | 75 | 1014.6 |
| 20260905210140 | 26 | 64 | 3.2 | 16.1 | 0.00 | 0.08 | 0.08 | 76 | 1014.7 |
| 20260905205127 | 26 | 108 | 3.2 | 14.5 | 0.00 | 0.08 | 0.08 | 75 | 1014.5 |
| 20260905204112 | 27 | 83 | 3.2 | 17.7 | 0.00 | 0.08 | 0.08 | 76 | 1014.4 |
| 20260905203134 | 27 | 107 | 3.2 | 17.7 | 0.00 | 0.08 | 0.08 | 76 | 1014.1 |
| 20260905202125 | 26 | 82 | 4.8 | 19.3 | 0.00 | 0.08 | 0.08 | 76 | 1014.3 |
| 20260905201116 | 26 | 116 | 6.4 | 19.3 | 0.00 | 0.08 | 0.08 | 76 | 1014.3 |
| 20260905200141 | 26 | 60 | 4.8 | 17.7 | 0.00 | 0.08 | 0.08 | 76 | 1014.4 |
| 20260905195111 | 26 | 98 | 3.2 | 14.5 | 0.00 | 0.08 | 0.08 | 76 | 1014.5 |
| 20260905194127 | 26 | 108 | 3.2 | 17.7 | 0.00 | 0.08 | 0.08 | 76 | 1014.5 |
| 20260905192111 | 27 | 72 | 3.2 | 19.3 | 0.00 | 0.08 | 0.08 | 74 | 1014.4 |
| 20260905191046 | 28 | 37 | 3.2 | 14.5 | 0.00 | 0.08 | 0.08 | 72 | 1014.7 |
| 20260905190051 | 28 | 99 | 1.6 | 14.5 | 0.00 | 0.08 | 0.08 | 64 | 1014.9 |
| 20260905185028 | 29 | 88 | 1.6 | 8.0 | 0.00 | 0.08 | 0.08 | 63 | 1014.8 |